This is the latest recevied weather packets stored in our database for station/object RN1M-13. If no packets are shown the sender has not sent any weather packets the latest 10 day(s).
| Time | Temp. | Humidity | Pressure | Rain* | Wind** | Luminosity | Snow |
|---|---|---|---|---|---|---|---|
| 1777977847 | 18.89° C | 79% | 1001.9 hPa | - | - | - | - |
| 1777975147 | 17.22° C | 100% | 1001.8 hPa | - | - | - | - |
| 1777974247 | 18.33° C | 100% | 1001.8 hPa | - | - | - | - |
| 1777973347 | 17.22° C | 100% | 1001.9 hPa | - | - | - | - |
| 1777972447 | 16.67° C | 100% | 1002 hPa | - | - | - | - |
| 1777971547 | 16.67° C | 100% | 1002 hPa | - | - | - | - |
| 1777970647 | 16.11° C | 100% | 1002.1 hPa | - | - | - | - |
| 1777969747 | 15° C | 100% | 1002 hPa | - | - | - | - |
| 1777968847 | 15.56° C | 100% | 1001.9 hPa | - | - | - | - |
| 1777967949 | 15.56° C | 100% | 1001.7 hPa | - | - | - | - |
| 1777967054 | 15.56° C | 100% | 1001.1 hPa | - | - | - | - |
| 1777966154 | 15° C | 100% | 999.4 hPa | - | - | - | - |
| 1777965254 | 12.78° C | 100% | 999.5 hPa | - | - | - | - |
| 1777964360 | 12.78° C | 100% | 999.5 hPa | - | - | - | - |
| 1777963453 | 12.78° C | 100% | 999.4 hPa | - | - | - | - |
| 1777961654 | 11.67° C | 100% | 998.7 hPa | - | - | - | - |
| 1777960753 | 11.67° C | 100% | 998.2 hPa | - | - | - | - |
| 1777959853 | 11.67° C | 100% | 997.9 hPa | - | - | - | - |
| 1777958953 | 11.67° C | 100% | 997.8 hPa | - | - | - | - |
| 1777958053 | 11.11° C | 100% | 997.7 hPa | - | - | - | - |
| 1777957155 | 11.11° C | 100% | 998.5 hPa | - | - | - | - |
| 1777956262 | 11.11° C | 100% | 997.8 hPa | - | - | - | - |
| 1777955362 | 11.11° C | 100% | 998 hPa | - | - | - | - |
| 1777954462 | 11.67° C | 100% | 998 hPa | - | - | - | - |
| 1777953562 | 12.22° C | 100% | 997.1 hPa | - | - | - | - |
* Rain since midnight (hover to see other rain measurements)
** Current wind speed in m/s (hover to see current wind gust speed)